Location: Geremba
(10.4250°N, 67.2394°W)
Time: 02:08:02
(UTC+00:00)

Cosmos 2297 Rocket - Pass Details

Date: 23 May 2024
Orbit: 839 x 842 km, 71.0° (Epoch: 12 June)

Event Time Altitude Azimuth Distance (km) Brightness Sun altitude
Exits shadow 07:48:19 61° 79° (E) 946 2.5 -31.3°
Drops below altitude 10° 07:53:24 10° 25° (NNE) 2,447 5.2 -30.2°
Sets 07:55:52 0° 22° (NNE) 3,381 6.1 -29.7°
